Time,TemperatureF,DewpointF,PressureIn,WindDirection,WindDirectionDegrees,WindSpeedMPH,WindSpeedGustMPH,Humidity,HourlyPrecipIn,Conditions,Clouds,dailyrainin,SolarRadiationWatts/m^2,SoftwareType,DateUTC
2013-02-11 00:02:00,43.0,42.0,29.33,NE,52,1.0,3.0,96,0.00,,,0.21,0.000000,,2013-02-11 05:02:00,
2013-02-11 00:10:00,43.0,42.0,29.31,NW,322,2.0,3.0,96,0.01,,,0.22,0.000000,,2013-02-11 05:10:00,
2013-02-11 00:42:00,43.0,42.0,29.31,NW,322,2.0,3.0,96,0.01,,,0.22,0.000000,,2013-02-11 05:42:00,
2013-02-11 00:53:00,43.0,42.0,29.31,NW,322,2.0,3.0,96,0.01,,,0.22,0.000000,,2013-02-11 05:53:00,
2013-02-11 01:02:00,43.0,42.0,29.31,NW,322,2.0,3.0,96,0.01,,,0.22,0.000000,,2013-02-11 06:02:00,
2013-02-11 01:10:00,43.0,42.0,29.28,NNW,341,3.0,8.0,96,0.00,,,0.22,0.000000,,2013-02-11 06:10:00,
2013-02-11 01:42:00,43.0,42.0,29.28,NNW,341,3.0,8.0,96,0.00,,,0.22,0.000000,,2013-02-11 06:42:00,
2013-02-11 01:52:00,43.0,42.0,29.28,NNW,341,3.0,8.0,96,0.00,,,0.22,0.000000,,2013-02-11 06:52:00,
2013-02-11 02:02:00,43.0,42.0,29.28,NNW,341,3.0,8.0,96,0.00,,,0.22,0.000000,,2013-02-11 07:02:00,
2013-02-11 02:10:00,42.0,41.0,29.26,NW,314,1.0,6.0,97,0.00,,,0.22,0.000000,,2013-02-11 07:10:00,
2013-02-11 02:42:00,42.0,41.0,29.26,NW,314,1.0,6.0,97,0.00,,,0.22,0.000000,,2013-02-11 07:42:00,
2013-02-11 02:52:00,42.0,41.0,29.26,NW,314,1.0,6.0,97,0.00,,,0.22,0.000000,,2013-02-11 07:52:00,
2013-02-11 03:01:00,42.0,41.0,29.26,NW,314,1.0,6.0,97,0.00,,,0.22,0.000000,,2013-02-11 08:01:00,
2013-02-11 03:10:00,44.0,43.0,29.24,ENE,78,2.0,5.0,97,0.00,,,0.22,0.000000,,2013-02-11 08:10:00,
2013-02-11 03:42:00,44.0,43.0,29.24,ENE,78,2.0,5.0,97,0.00,,,0.22,0.000000,,2013-02-11 08:42:00,
2013-02-11 03:52:00,44.0,43.0,29.24,ENE,78,2.0,5.0,97,0.00,,,0.22,0.000000,,2013-02-11 08:52:00,
2013-02-11 04:02:00,44.0,43.0,29.24,ENE,78,2.0,5.0,97,0.00,,,0.22,0.000000,,2013-02-11 09:02:00,
2013-02-11 04:10:00,43.0,42.0,29.23,NNW,327,2.0,5.0,97,0.00,,,0.22,0.000000,,2013-02-11 09:10:00,
2013-02-11 04:32:00,43.0,42.0,29.23,NNW,327,2.0,5.0,97,0.00,,,0.22,0.000000,,2013-02-11 09:32:00,
2013-02-11 04:42:00,43.0,42.0,29.23,NNW,327,2.0,5.0,97,0.00,,,0.22,0.000000,,2013-02-11 09:42:00,
2013-02-11 04:52:00,43.0,42.0,29.23,NNW,327,2.0,5.0,97,0.00,,,0.22,0.000000,,2013-02-11 09:52:00,
2013-02-11 05:02:00,43.0,42.0,29.23,NNW,327,2.0,5.0,97,0.00,,,0.22,0.000000,,2013-02-11 10:02:00,
2013-02-11 05:10:00,45.0,44.0,29.22,NW,309,1.0,5.0,98,0.01,,,0.23,0.000000,,2013-02-11 10:10:00,
2013-02-11 05:42:00,45.0,44.0,29.22,NW,309,1.0,5.0,98,0.01,,,0.23,0.000000,,2013-02-11 10:42:00,
2013-02-11 05:52:00,45.0,44.0,29.22,NW,309,1.0,5.0,98,0.01,,,0.23,0.000000,,2013-02-11 10:52:00,
2013-02-11 06:02:00,45.0,44.0,29.22,NW,309,1.0,5.0,98,0.01,,,0.23,0.000000,,2013-02-11 11:02:00,
2013-02-11 06:10:00,44.0,43.0,29.22,ENE,68,2.0,3.0,98,0.07,,,0.30,0.000000,,2013-02-11 11:10:00,
2013-02-11 06:42:00,44.0,43.0,29.22,ENE,68,2.0,3.0,98,0.07,,,0.30,0.000000,,2013-02-11 11:42:00,
2013-02-11 06:52:00,44.0,43.0,29.22,ENE,68,2.0,3.0,98,0.07,,,0.30,0.000000,,2013-02-11 11:52:00,
2013-02-11 07:03:00,44.0,43.0,29.22,ENE,68,2.0,3.0,98,0.07,,,0.30,0.000000,,2013-02-11 12:03:00,
2013-02-11 07:10:00,46.0,45.0,29.18,SE,142,2.0,8.0,98,0.04,,,-99.99,0.000000,,2013-02-11 12:10:00,
2013-02-11 07:32:00,46.0,45.0,29.18,SE,142,2.0,8.0,98,0.04,,,-99.99,0.000000,,2013-02-11 12:32:00,
2013-02-11 07:42:00,46.0,45.0,29.18,SE,142,2.0,8.0,98,0.04,,,-99.99,0.000000,,2013-02-11 12:42:00,
2013-02-11 07:52:00,46.0,45.0,29.18,SE,142,2.0,8.0,98,0.04,,,-99.99,0.000000,,2013-02-11 12:52:00,
2013-02-11 08:02:00,46.0,45.0,29.18,SE,142,2.0,8.0,98,0.04,,,-99.99,0.000000,,2013-02-11 13:02:00,
2013-02-11 08:10:00,47.0,46.0,29.21,South,171,2.0,4.0,98,0.00,,,-99.99,0.000000,,2013-02-11 13:10:00,
2013-02-11 08:42:00,47.0,46.0,29.21,South,171,2.0,4.0,98,0.00,,,-99.99,0.000000,,2013-02-11 13:42:00,
2013-02-11 08:52:00,47.0,46.0,29.21,South,171,2.0,4.0,98,0.00,,,-99.99,0.000000,,2013-02-11 13:52:00,
2013-02-11 09:02:00,47.0,46.0,29.21,South,171,2.0,4.0,98,0.00,,,-99.99,0.000000,,2013-02-11 14:02:00,
2013-02-11 09:10:00,48.0,47.0,29.20,ENE,57,1.0,5.0,98,0.00,,,-99.99,2.000000,,2013-02-11 14:10:00,
2013-02-11 09:42:00,48.0,47.0,29.20,ENE,57,1.0,5.0,98,0.00,,,-99.99,2.000000,,2013-02-11 14:42:00,
2013-02-11 09:53:00,48.0,47.0,29.20,ENE,57,1.0,5.0,98,0.00,,,-99.99,2.000000,,2013-02-11 14:53:00,
2013-02-11 10:02:00,48.0,47.0,29.20,ENE,57,1.0,5.0,98,0.00,,,-99.99,2.000000,,2013-02-11 15:02:00,
2013-02-11 10:10:00,50.0,50.0,29.18,SSE,159,3.0,7.0,99,0.00,,,0.34,28.000000,,2013-02-11 15:10:00,
2013-02-11 10:42:00,50.0,50.0,29.18,SSE,159,3.0,7.0,99,0.00,,,0.34,28.000000,,2013-02-11 15:42:00,
2013-02-11 10:52:00,50.0,50.0,29.18,SSE,159,3.0,7.0,99,0.00,,,0.34,28.000000,,2013-02-11 15:52:00,
2013-02-11 11:02:00,50.0,50.0,29.18,SSE,159,3.0,7.0,99,0.00,,,0.34,28.000000,,2013-02-11 16:02:00,
2013-02-11 11:10:00,53.0,51.0,29.17,SSW,199,2.0,9.0,93,0.00,,,0.34,91.000000,,2013-02-11 16:10:00,
2013-02-11 11:32:00,53.0,51.0,29.17,SSW,199,2.0,9.0,93,0.00,,,0.34,91.000000,,2013-02-11 16:32:00,
2013-02-11 11:42:00,53.0,51.0,29.17,SSW,199,2.0,9.0,93,0.00,,,0.34,91.000000,,2013-02-11 16:42:00,
2013-02-11 11:53:00,53.0,51.0,29.17,SSW,199,2.0,9.0,93,0.00,,,0.34,91.000000,,2013-02-11 16:53:00,
2013-02-11 12:02:00,53.0,51.0,29.17,SSW,199,2.0,9.0,93,0.00,,,0.34,91.000000,,2013-02-11 17:02:00,
2013-02-11 12:10:00,55.0,54.0,29.18,SSE,156,3.0,6.0,96,0.01,,,0.35,164.000000,,2013-02-11 17:10:00,
2013-02-11 12:42:00,55.0,54.0,29.18,SSE,156,3.0,6.0,96,0.01,,,0.35,164.000000,,2013-02-11 17:42:00,
2013-02-11 12:53:00,55.0,54.0,29.18,SSE,156,3.0,6.0,96,0.01,,,0.35,164.000000,,2013-02-11 17:53:00,
2013-02-11 13:02:00,55.0,54.0,29.18,SSE,156,3.0,6.0,96,0.01,,,0.35,164.000000,,2013-02-11 18:02:00,
2013-02-11 13:10:00,57.0,55.0,29.12,WNW,298,4.0,11.0,92,0.00,,,0.35,95.000000,,2013-02-11 18:10:00,
2013-02-11 13:42:00,57.0,55.0,29.12,WNW,298,4.0,11.0,92,0.00,,,0.35,95.000000,,2013-02-11 18:42:00,
2013-02-11 13:54:00,57.0,55.0,29.12,WNW,298,4.0,11.0,92,0.00,,,0.35,95.000000,,2013-02-11 18:54:00,
2013-02-11 14:02:00,57.0,55.0,29.12,WNW,298,4.0,11.0,92,0.00,,,0.35,95.000000,,2013-02-11 19:02:00,
2013-02-11 15:10:00,58.0,55.0,29.11,SSE,158,4.0,9.0,89,-99.99,,,0.35,149.000000,,2013-02-11 20:10:00,
2013-02-11 15:42:00,58.0,55.0,29.11,SSE,158,4.0,9.0,89,-99.99,,,0.35,149.000000,,2013-02-11 20:42:00,
2013-02-11 15:52:00,58.0,55.0,29.11,SSE,158,4.0,9.0,89,-99.99,,,0.35,149.000000,,2013-02-11 20:52:00,
2013-02-11 16:02:00,58.0,55.0,29.11,SSE,158,4.0,9.0,89,-99.99,,,0.35,149.000000,,2013-02-11 21:02:00,
2013-02-11 16:10:00,57.0,54.0,29.11,NE,56,4.0,10.0,89,0.00,,,0.35,136.000000,,2013-02-11 21:10:00,
2013-02-11 16:32:00,57.0,54.0,29.11,NE,56,4.0,10.0,89,0.00,,,0.35,136.000000,,2013-02-11 21:32:00,
2013-02-11 16:42:00,57.0,54.0,29.11,NE,56,4.0,10.0,89,0.00,,,0.35,136.000000,,2013-02-11 21:42:00,
2013-02-11 16:52:00,57.0,54.0,29.11,NE,56,4.0,10.0,89,0.00,,,0.35,136.000000,,2013-02-11 21:52:00,
2013-02-11 17:02:00,57.0,54.0,29.11,NE,56,4.0,10.0,89,0.00,,,0.35,136.000000,,2013-02-11 22:02:00,
2013-02-11 17:10:00,57.0,53.0,29.11,SSW,195,1.0,12.0,87,0.00,,,0.35,103.000000,,2013-02-11 22:10:00,
2013-02-11 17:32:00,57.0,53.0,29.11,SSW,195,1.0,12.0,87,0.00,,,0.35,103.000000,,2013-02-11 22:32:00,
2013-02-11 17:42:00,57.0,53.0,29.11,SSW,195,1.0,12.0,87,0.00,,,0.35,103.000000,,2013-02-11 22:42:00,
2013-02-11 17:52:00,57.0,53.0,29.11,SSW,195,1.0,12.0,87,0.00,,,0.35,103.000000,,2013-02-11 22:52:00,
2013-02-11 18:02:00,57.0,53.0,29.11,SSW,195,1.0,12.0,87,0.00,,,0.35,103.000000,,2013-02-11 23:02:00,
2013-02-11 18:10:00,56.0,54.0,29.11,SSE,165,3.0,7.0,94,0.00,,,0.35,85.000000,,2013-02-11 23:10:00,
2013-02-11 18:42:00,56.0,54.0,29.11,SSE,165,3.0,7.0,94,0.00,,,0.35,85.000000,,2013-02-11 23:42:00,
2013-02-11 18:52:00,56.0,54.0,29.11,SSE,165,3.0,7.0,94,0.00,,,0.35,85.000000,,2013-02-11 23:52:00,
2013-02-11 19:02:00,56.0,54.0,29.11,SSE,165,3.0,7.0,94,0.00,,,0.35,85.000000,,2013-02-12 00:02:00,
2013-02-11 19:10:00,52.0,51.0,29.13,SSE,168,3.0,9.0,97,0.00,,,0.34,15.000000,,2013-02-12 00:10:00,
2013-02-11 19:32:00,52.0,51.0,29.13,SSE,168,3.0,9.0,97,0.00,,,0.34,15.000000,,2013-02-12 00:32:00,
2013-02-11 19:42:00,52.0,51.0,29.13,SSE,168,3.0,9.0,97,0.00,,,0.34,15.000000,,2013-02-12 00:42:00,
2013-02-11 19:52:00,52.0,51.0,29.13,SSE,168,3.0,9.0,97,0.00,,,0.34,15.000000,,2013-02-12 00:52:00,
2013-02-11 20:02:00,52.0,51.0,29.13,SSE,168,3.0,9.0,97,0.00,,,0.34,15.000000,,2013-02-12 01:02:00,
2013-02-11 20:10:00,53.0,52.0,29.14,SSE,157,3.0,11.0,98,0.00,,,-99.99,0.000000,,2013-02-12 01:10:00,
2013-02-11 20:42:00,53.0,52.0,29.14,SSE,157,3.0,11.0,98,0.00,,,-99.99,0.000000,,2013-02-12 01:42:00,
2013-02-11 20:52:00,53.0,52.0,29.14,SSE,157,3.0,11.0,98,0.00,,,-99.99,0.000000,,2013-02-12 01:52:00,
2013-02-11 21:02:00,53.0,52.0,29.14,SSE,157,3.0,11.0,98,0.00,,,-99.99,0.000000,,2013-02-12 02:02:00,
2013-02-11 21:10:00,50.0,49.0,29.14,South,180,3.0,8.0,98,0.00,,,0.19,0.000000,,2013-02-12 02:10:00,
2013-02-11 21:32:00,50.0,49.0,29.14,South,180,3.0,8.0,98,0.00,,,0.19,0.000000,,2013-02-12 02:32:00,
2013-02-11 21:42:00,50.0,49.0,29.14,South,180,3.0,8.0,98,0.00,,,0.19,0.000000,,2013-02-12 02:42:00,
2013-02-11 21:53:00,50.0,49.0,29.14,South,180,3.0,8.0,98,0.00,,,0.19,0.000000,,2013-02-12 02:53:00,
2013-02-11 22:02:00,50.0,49.0,29.14,South,180,3.0,8.0,98,0.00,,,0.19,0.000000,,2013-02-12 03:02:00,
2013-02-11 22:10:00,50.0,49.0,29.15,SSW,206,3.0,6.0,98,0.00,,,0.14,0.000000,,2013-02-12 03:10:00,
2013-02-11 22:32:00,50.0,49.0,29.15,SSW,206,3.0,6.0,98,0.00,,,0.14,0.000000,,2013-02-12 03:32:00,
2013-02-11 22:42:00,50.0,49.0,29.15,SSW,206,3.0,6.0,98,0.00,,,0.14,0.000000,,2013-02-12 03:42:00,
2013-02-11 22:52:00,50.0,49.0,29.15,SSW,206,3.0,6.0,98,0.00,,,0.14,0.000000,,2013-02-12 03:52:00,
2013-02-11 23:01:00,50.0,49.0,29.15,SSW,206,3.0,6.0,98,0.00,,,0.14,0.000000,,2013-02-12 04:01:00,
2013-02-11 23:10:00,47.0,46.0,29.12,West,266,3.0,9.0,98,0.00,,,0.14,0.000000,,2013-02-12 04:10:00,
2013-02-11 23:32:00,47.0,46.0,29.12,West,266,3.0,9.0,98,0.00,,,0.14,0.000000,,2013-02-12 04:32:00,
2013-02-11 23:42:00,47.0,46.0,29.12,West,266,3.0,9.0,98,0.00,,,0.14,0.000000,,2013-02-12 04:42:00,
2013-02-11 23:52:00,47.0,46.0,29.12,West,266,3.0,9.0,98,0.00,,,0.14,0.000000,,2013-02-12 04:52:00,